This demonstration page uses our WeatherBlox Daily Observations layout. Learn more.

Left ArrowRight Arrow

Hourly Observations for June 11, 2018

Temp ( °F °C ) Dew Point ( °F °C ) Humidity (%) Winds ( mph kmh ) Pressure ( in mb ) Visibility ( mi km ) Precip ( " mm )
12:53 am 00:53 Clear 46 7.8 30 -1.1 54 54 SSW 13 20 29.80 1009 10 16 0.00 0.00
1:53 am 01:53 Clear 46 7.8 29 -1.7 51 51 SW 13 20 29.82 1010 10 16 0.00 0.00
2:53 am 02:53 Clear 46 7.8 29 -1.7 51 51 SW 17 28 29.83 1010 10 16 0.00 0.00
3:53 am 03:53 Clear 45 7.2 28 -2.2 52 52 SW 17 28 29.82 1010 10 16 0.00 0.00
4:53 am 04:53 Clear 43 6.1 29 -1.7 58 58 SW 15 24 29.82 1010 10 16 0.00 0.00
5:53 am 05:53 Sunny 44 6.7 28 -2.2 53 53 SW 18 30 29.82 1010 10 16 0.00 0.00
6:53 am 06:53 Sunny 47 8.3 30 -1.1 52 52 SW 17 28 29.82 1010 10 16 0.00 0.00
7:53 am 07:53 Sunny 50 10 31 -0.6 48 48 SW 23 37 29.82 1010 10 16 0.00 0.00
8:53 am 08:53 Sunny 55 12.8 30 -1.1 38 38 WSW 21 33 29.82 1010 10 16 0.00 0.00
9:53 am 09:53 Sunny 58 14.4 27 -2.8 31 31 SW 21 33 29.81 1009 10 16 0.00 0.00
10:53 am 10:53 Sunny 61 16.1 25 -3.9 25 25 WSW 28 44 29.80 1009 10 16 0.00 0.00
11:53 am 11:53 Mostly Cloudy 60 15.6 24 -4.4 25 25 W 16 26 29.80 1009 10 16 0.00 0.00
12:53 pm 12:53 Mostly Sunny 64 17.8 24 -4.4 22 22 W 21 33 29.79 1009 10 16 0.00 0.00
1:53 pm 13:53 Mostly Sunny 66 18.9 24 -4.4 20 20 W 20 31 29.78 1008 10 16 0.00 0.00
2:53 pm 14:53 Partly Cloudy 68 20 22 -5.6 17 17 W 24 39 29.78 1009 10 16 0.00 0.00
3:53 pm 15:53 Sunny 67 19.4 21 -6.1 17 17 WSW 21 33 29.78 1009 10 16 0.00 0.00
4:53 pm 16:53 Mostly Sunny 68 20 20 -6.7 16 16 W 22 35 29.78 1009 10 16 0.00 0.00
5:53 pm 17:53 Cloudy 65 18.3 24 -4.4 21 21 W 22 35 29.79 1009 10 16 0.00 0.00
6:53 pm 18:53 Mostly Cloudy 65 18.3 24 -4.4 21 21 WSW 22 35 29.80 1009 10 16 0.00 0.00
7:53 pm 19:53 Partly Cloudy 61 16.1 28 -2.2 29 29 W 23 37 29.82 1010 10 16 0.00 0.00
8:53 pm 20:53 Mostly Sunny 59 15 29 -1.7 32 32 WSW 17 28 29.84 1011 10 16 0.00 0.00
9:53 pm 21:53 Mostly Cloudy 56 13.3 30 -1.1 37 37 WSW 17 28 29.87 1011 10 16 0.00 0.00
10:53 pm 22:53 Mostly Cloudy 53 11.7 31 -0.6 43 43 WSW 17 28 29.89 1012 10 16 0.00 0.00
11:53 pm 23:53 Clear 52 11.1 30 -1.1 43 43 WSW 21 33 29.91 1013 10 16 0.00 0.00

Powered by AerisWeather